15 daagse weersverwachting Salzburg (AT)

  • Overzicht
  • Per uur
  • 15 dagen
  • Extra
  • Vergelijk
  • Kaarten
  • Dagkaart
  • Meer »
  • Info
  • Statistieken
  • Directe link
    Temp 6h Neerslag Wind  
 05:33     20:57    Daglengte: 15:24 Vandaag
02:00
20°
 
2
08:00
21°
2.3 mm
1
14:00
22°
15.0 mm
2
warningclass
20:00
22°
8.7 mm
1
 05:34     20:55    Daglengte: 15:21 Morgen
02:00
17°
 
2
08:00
20°
 
1
14:00
27°
 
2
20:00
25°
 
1
 05:35     20:54    Daglengte: 15:19 Dinsdag 23 Jul
02:00
18°
 
2
08:00
21°
 
0
14:00
29°
 
2
20:00
25°
 
1
Locatie info
Region: Salzburg
Latitude: 47.8007°N
Longitude: 13.0434°E
435 masl
Postcode: 5020
Temp/Neerslag /Baro Onweer/Dauwpunt
    Temp Baro 1h Neerslag Dauwpunt Wind UV Bewolking  
 05:33     20:57    Daglengte: 15:24 Vandaag
01:00
20°
1017.5 hPa
14%
15.5°
2
Windvlaag: 2.3 km/h
81%
02:00
20°
1017.6 hPa
14%
15.2°
2
Windvlaag: 2.4 km/h
77%
03:00
19°
1017.6 hPa
14%
14.7°
2
Windvlaag: 2.6 km/h
77%
04:00
19°
1017.6 hPa
14%
14.5°
2
Windvlaag: 2.6 km/h
79%
05:00
18°
1018.2 hPa
18%
14.4°
2
Windvlaag: 2.4 km/h
65%
06:00
18°
1018.7 hPa
29%
14.9°
1
Windvlaag: 2.5 km/h
81%
07:00
19°
1019.3 hPa 0.7 mm
77%
15.4°
1
Windvlaag: 1.7 km/h
83%
08:00
21°
1020.0 hPa 1.5 mm
82%
16.2°
1
Windvlaag: 1.4 km/h
90%
09:00
22°
1020.9 hPa 2.7 mm
82%
16.1°
2
Windvlaag: -1.5 km/h
90%
10:00
21°
1021.7 hPa 2.6 mm
82%
16.4°
2
Windvlaag: -0.6 km/h
88% warningclass
11:00
22°
1022.0 hPa 2.5 mm
82%
16.3°
1
Windvlaag: -1.5 km/h
89% warningclass
12:00
22°
1022.2 hPa 2.1 mm
82%
16.9°
2
Windvlaag: -1.4 km/h
71% warningclass
13:00
22°
1022.1 hPa 2.9 mm
81%
17.2°
2
Windvlaag: -1.4 km/h
76% warningclass
14:00
22°
1022.1 hPa 2.2 mm
82%
17.9°
2
Windvlaag: -1.1 km/h
64% warningclass
15:00
23°
1021.9 hPa 2.3 mm
82%
18.1°
1
Windvlaag: -1 km/h
45%
16:00
23°
1021.7 hPa
82%
17.5°
1
Windvlaag: 0.2 km/h
46%
17:00
23°
1021.8 hPa 2.9 mm
80%
18.2°
1
Windvlaag: 0.4 km/h
43% warningclass
18:00
23°
1021.8 hPa 3.5 mm
82%
18.8°
1
Windvlaag: 1.6 km/h
22%
19:00
23°
1022.2 hPa
77%
18.5°
1
Windvlaag: 2 km/h
21%
20:00
22°
1022.6 hPa
65%
19.0°
1
Windvlaag: 1 km/h
23%
21:00
21°
1023.2 hPa
70%
18.1°
1
Windvlaag: 1 km/h
11%
22:00
20°
1023.8 hPa
36%
17.6°
1
Windvlaag: 1.4 km/h
28%
23:00
19°
1024.1 hPa
68%
17.1°
1
Windvlaag: 1.8 km/h
23%
 05:34     20:55    Daglengte: 15:21 Morgen
00:00
18°
1024.3 hPa
59%
16.6°
1
Windvlaag: 1.8 km/h
15%
01:00
18°
1024.4 hPa
14%
15.9°
2
Windvlaag: 1.7 km/h
15%
02:00
17°
1024.4 hPa
14%
15.4°
2
Windvlaag: 1.4 km/h
20%
03:00
17°
1024.4 hPa
14%
15.1°
2
Windvlaag: 1.3 km/h
24%
04:00
16°
1024.2 hPa
14%
14.8°
2
Windvlaag: 1.5 km/h
14%
05:00
16°
1024.2 hPa
14%
14.5°
2
Windvlaag: 1.4 km/h
13%
06:00
16°
1024.5 hPa
14%
14.3°
2
Windvlaag: 1.1 km/h
56%
07:00
17°
1024.6 hPa
14%
15.1°
1
Windvlaag: 1.1 km/h
59%
08:00
20°
1024.7 hPa
14%
16.3°
1
Windvlaag: 1.2 km/h
52%
09:00
22°
1024.5 hPa
14%
16.4°
1
Windvlaag: 0.4 km/h
51%
10:00
23°
1024.5 hPa
14%
16.5°
1
Windvlaag: -0.4 km/h
70%
11:00
25°
1024.5 hPa
14%
16.2°
1
Windvlaag: -1.3 km/h
63%
12:00
25°
1024.1 hPa
14%
15.7°
1
Windvlaag: -1.8 km/h
47%
13:00
26°
1023.7 hPa
16%
15.2°
2
Windvlaag: -2 km/h
58%
14:00
27°
1023.2 hPa
15%
15.8°
2
Windvlaag: -2.1 km/h
52%
15:00
27°
1022.7 hPa
14%
15.8°
2
Windvlaag: -2.3 km/h
71%
16:00
27°
1022.5 hPa
14%
15.1°
2
Windvlaag: -2.3 km/h
62%
17:00
27°
1022.5 hPa
21%
14.5°
2
Windvlaag: -2.4 km/h
64%
18:00
27°
1022.4 hPa
21%
14.6°
2
Windvlaag: -2.5 km/h
86%
19:00
26°
1022.4 hPa
21%
16.2°
1
Windvlaag: -2.3 km/h
84%
20:00
25°
1022.5 hPa
21%
18.6°
1
Windvlaag: -1.7 km/h
84%
21:00
23°
1022.8 hPa
21%
17.1°
1
Windvlaag: -1.2 km/h
86%
22:00
21°
1023.0 hPa
21%
16.2°
1
Windvlaag: 0.7 km/h
76%
23:00
20°
1023.2 hPa
21%
15.4°
2
Windvlaag: 1.2 km/h
86%
 05:35     20:54    Daglengte: 15:19 Dinsdag 23 Jul
00:00
19°
1023.2 hPa
21%
15.0°
2
Windvlaag: 1.4 km/h
75%
01:00
19°
1023.3 hPa
21%
14.7°
2
Windvlaag: 1.5 km/h
20%
02:00
18°
1023.1 hPa
21%
14.7°
2
Windvlaag: 1.4 km/h
12%
03:00
18°
1022.8 hPa
21%
14.7°
2
Windvlaag: 1.4 km/h
28%
04:00
17°
1022.7 hPa
21%
14.5°
2
Windvlaag: 1.3 km/h
43%
05:00
17°
1022.7 hPa
21%
13.9°
2
Windvlaag: 1 km/h
46%
06:00
17°
1022.7 hPa
21%
13.6°
1
Windvlaag: 0.8 km/h
17%
07:00
18°
1022.7 hPa
21%
14.5°
1
Windvlaag: 0.7 km/h
14%
08:00
21°
1022.5 hPa
21%
15.7°
0
Windvlaag: 0.7 km/h
9%
09:00
23°
1022.3 hPa
21%
15.2°
0
Windvlaag: -0.6 km/h
7%
10:00
25°
1022.1 hPa
21%
15.4°
1
Windvlaag: -1.2 km/h
3%
11:00
26°
1022.0 hPa
21%
15.4°
1
Windvlaag: -2 km/h
1%
12:00
27°
1021.6 hPa
21%
15.1°
2
Windvlaag: -2.3 km/h
1%
13:00
28°
Voelt als: 28.0°
1021.0 hPa
21%
14.8°
2
Windvlaag: -2.6 km/h
1%
14:00
29°
Voelt als: 28.4°
1020.5 hPa
21%
14.4°
2
Windvlaag: -2.7 km/h
0%
15:00
29°
Voelt als: 28.4°
1020.3 hPa
21%
13.8°
2
Windvlaag: 0.5 km/h
0%
16:00
29°
Voelt als: 28.5°
1019.8 hPa
21%
13.2°
2
Windvlaag: 0.5 km/h
0%
17:00
29°
Voelt als: 28.4°
1019.4 hPa
21%
13.2°
2
Windvlaag: 0.4 km/h
0%
18:00
29°
Voelt als: 28.2°
1019.0 hPa
21%
13.8°
2
Windvlaag: 0.4 km/h
0%
19:00
28°
1018.8 hPa
21%
15.4°
1
Windvlaag: 0.5 km/h
0%
20:00
25°
1018.8 hPa
21%
18.6°
1
Windvlaag: 0.5 km/h
0%
21:00
24°
1019.0 hPa 16.8 mm
100%
17.4°
1
Windvlaag: 5.9 km/h
0%
22:00
23°
1018.9 hPa 16.8 mm
100%
16.8°
1
Windvlaag: 7.9 km/h
0%
23:00
21°
1018.9 hPa 16.8 mm
100%
16.1°
1
Windvlaag: 7 km/h
0%
 05:36     20:53    Daglengte: 15:17 Woensdag 24 Jul
00:00
20°
1018.9 hPa 16.8 mm
100%
15.2°
1
Windvlaag: 2.2 km/h
0%
Temp/Neerslag /Baro Onweer/Dauwpunt
    Temp Baro Neerslag Dauwpunt Wind Bewolking  
 05:33     20:57    Daglengte: 15:24 Vandaag
02:00
20°
1017.6 hPa   15.2°
2
77%
05:00
18°
1018.2 hPa   14.4°
2
65%
08:00
21°
1020.0 hPa 2.3 mm 16.2°
1
90%
11:00
22°
1022.0 hPa 7.7 mm 16.3°
1
89% warningclass
14:00
22°
1022.1 hPa 7.3 mm 17.9°
2
64% warningclass
17:00
23°
1021.8 hPa 5.1 mm 18.2°
1
43% warningclass
20:00
22°
1022.6 hPa 3.5 mm 19.0°
1
23%
23:00
19°
1024.1 hPa   17.1°
1
23%
 05:34     20:55    Daglengte: 15:21 Morgen
02:00
17°
1024.4 hPa   15.4°
2
20%
05:00
16°
1024.2 hPa   14.5°
2
13%
08:00
20°
1024.7 hPa   16.3°
1
52%
11:00
25°
1024.5 hPa   16.2°
1
63%
14:00
27°
1023.2 hPa   15.8°
2
52%
17:00
27°
1022.5 hPa   14.5°
2
64%
20:00
25°
1022.5 hPa   18.6°
1
84%
23:00
20°
1023.2 hPa   15.4°
2
86%
 05:35     20:54    Daglengte: 15:19 Dinsdag 23 Jul
02:00
18°
1023.1 hPa   14.7°
2
12%
05:00
17°
1022.7 hPa   13.9°
2
46%
08:00
21°
1022.5 hPa   15.7°
0
9%
11:00
26°
1022.0 hPa   15.4°
1
1%
14:00
29°
Voelt als: 28.4°
1020.5 hPa   14.4°
2
0%
17:00
29°
Voelt als: 28.4°
1019.4 hPa   13.2°
2
0%
20:00
25°
1018.8 hPa   18.6°
1
0%
23:00
21°
1018.9 hPa 50.5 mm 16.1°
1
0%
 05:36     20:53    Daglengte: 15:17 Woensdag 24 Jul
02:00
18°
1018.7 hPa 50.5 mm 13.8°
1
0%
05:00
21°
1018.7 hPa 17.0 mm 14.7°
1
0%
08:00
22°
1018.5 hPa 17.0 mm 15.3°
0
0%
11:00
26°
1018.0 hPa 17.0 mm 16.2°
1
0%
14:00
30°
1017.5 hPa 17.0 mm 16.2°
2
0%
17:00
28°
1017.2 hPa 17.0 mm 18.0°
2
0%
20:00
26°
1017.0 hPa 17.0 mm 19.2°
1
0%
23:00
22°
1017.7 hPa 17.0 mm 16.8°
1
0%
 05:37     20:52    Daglengte: 15:15 Donderdag 25 Jul
02:00
18°
1018.3 hPa 17.0 mm 14.3°
1
0%
05:00
20°
1018.3 hPa 17.0 mm 15.1°
1
0%
08:00
22°
1018.3 hPa 17.0 mm 15.8°
0
0%
11:00
27°
1017.5 hPa 17.0 mm 16.3°
1
41%
14:00
31°
Voelt als: 30.6°
1016.7 hPa 17.0 mm 15.5°
2
81%
17:00
29°
1016.1 hPa 17.5 mm 17.6°
2
58%
20:00
26°
1015.7 hPa 18.8 mm 18.4°
1
36%
23:00
23°
1016.0 hPa 18.9 mm 16.8°
1
33%
 05:39     20:51    Daglengte: 15:12 Vrijdag 26 Jul
02:00
19°
1016.3 hPa 19.2 mm 14.9°
1
30%
05:00
20°
1016.3 hPa 19.4 mm 15.1°
1
28%
08:00
22°
1016.3 hPa 19.4 mm 15.4°
0
27%
11:00
27°
1015.5 hPa 19.4 mm 16.2°
1
56%
14:00
31°
Voelt als: 31.0°
1014.6 hPa 19.6 mm 15.6°
2
85%
17:00
30°
1014.2 hPa 23.2 mm 19.0°
2
53%
20:00
28°
1014.1 hPa 30.9 mm 20.7°
1
22%
23:00
24°
1015.0 hPa 32.1 mm 17.8°
1
29%
 05:40     20:50    Daglengte: 15:10 Zaterdag 27 Jul
02:00
20°
1015.8 hPa 32.2 mm 14.7°
1
37%
05:00
21°
1016.5 hPa 33.7 mm 16.1°
1
18%
08:00
23°
1017.2 hPa 34.8 mm 17.5°
1
0%
11:00
27°
1016.9 hPa 35.4 mm 17.5°
1
18%
14:00
31°
Voelt als: 31.0°
1016.5 hPa 36.3 mm 15.9°
1
35%
17:00
29°
1016.6 hPa 37.5 mm 17.9°
2
22%
20:00
27°
1016.8 hPa 40.1 mm 19.3°
2
9%
23:00
24°
1017.6 hPa   18.2°
2
44%
 05:41     20:48    Daglengte: 15:07 Zondag 28 Jul
02:00
21°
1018.3 hPa 80.4 mm 17.1°
1
80%
08:00
25°
1019.5 hPa 80.5 mm 19.2°
1
3%
14:00
30°
1019.1 hPa 81.8 mm 17.3°
2
66%
20:00
28°
1018.0 hPa 82.4 mm 20.0°
1
42%
 05:42     20:47    Daglengte: 15:05 Maandag 29 Jul
02:00
21°
1019.0 hPa 82.6 mm 16.3°
1
1%
08:00
25°
1019.2 hPa 82.6 mm 17.8°
1
0%
14:00
35°
Voelt als: 33.7°
1015.9 hPa 82.6 mm 13.6°
2
72%
20:00
30°
1015.0 hPa 82.6 mm 18.5°
1
16%
 05:44     20:46    Daglengte: 15:02 Dinsdag 30 Jul
02:00
21°
1015.6 hPa 82.7 mm 15.9°
1
79%
08:00
24°
1015.9 hPa 82.7 mm 17.5°
1
72%
14:00
36°
Voelt als: 34.9°
1012.8 hPa 82.7 mm 12.6°
2
65%
20:00
23°
1017.5 hPa 0.7 mm 18.6°
1
25%
 05:45     20:44    Daglengte: 14:59 Woensdag 31 Jul
02:00
17°
1018.7 hPa 0.2 mm 14.5°
2
23%
08:00
20°
1018.4 hPa 0.5 mm 17.0°
1
19%
14:00
28°
1016.4 hPa 1.2 mm 18.1°
1
25%
20:00
23°
1016.2 hPa 1.4 mm 19.4°
1
36%
 05:46     20:43    Daglengte: 14:57 Donderdag 01 Aug
02:00
17°
1017.5 hPa 0.5 mm 15.4°
1
31%
08:00
20°
1017.3 hPa 0.3 mm 17.4°
1
23%
14:00
28°
1015.2 hPa 0.6 mm 18.0°
1
20%
20:00
23°
1015.2 hPa 1.9 mm 19.2°
1
42%
 05:47     20:41    Daglengte: 14:54 Vrijdag 02 Aug
02:00
17°
1016.7 hPa 1.2 mm 14.8°
1
39%
08:00
19°
1016.8 hPa 2.1 mm 16.9°
1
33%
14:00
26°
1015.4 hPa 1.6 mm 16.8°
2
34%
20:00
22°
1015.2 hPa 1.6 mm 17.9°
1
36%
 05:49     20:40    Daglengte: 14:51 Zaterdag 03 Aug
02:00
16°
1016.5 hPa 1.4 mm 13.9°
1
33%
08:00
19°
1016.1 hPa 0.5 mm 15.9°
1
32%
14:00
25°
1014.2 hPa 0.8 mm 16.8°
2
31%
20:00
21°
1014.1 hPa 3.6 mm 17.3°
1
46%
 05:50     20:39    Daglengte: 14:49 Zondag 04 Aug
02:00
15°
1015.5 hPa 4.6 mm 13.4°
1
47%
08:00
17°
1015.5 hPa 1.4 mm 14.6°
1
42%
14:00
23°
1014.2 hPa 1.7 mm 16.0°
1
43%
20:00
19°
1014.3 hPa 2.6 mm 16.2°
1
52%
  CAPE Lifted Index Hail Supercell Tornado SRH 3km CL BTM PRES CL TOP PRES Swiss DWD icon SMHI TS
 05:33     20:57    Daglengte: 15:24 Vandaag
01:00 0 J/kg -2.0 K 0 % 0 % 0 % 0 m²/s² 0 0 0.07 3
02:00 0 J/kg -1.9 K 0 % 0 % 0 % 0 m²/s² 0 0 -0.1 3
03:00 0 J/kg -3.0 K 0 % 0 % 0 % 0 m²/s² 0 0 -1.17 3
04:00 0 J/kg -2.3 K 0 % 0 % 0 % 0 m²/s² 0 0 -0.92 2
05:00 0 J/kg -3.5 K 0 % 0 % 0 % 0 m²/s² 0 0 -2.27 2
06:00 0 J/kg -3.5 K 0 % 0 % 0 % 0 m²/s² 0 0 -2.33 3
07:00 0 J/kg -3.0 K 0 % 0 % 0 % 0 m²/s² 0 0 -1.98 3
08:00 25 J/kg -0.4 K 0 % 0 % 0 % 0 m²/s² 0 0 -0.4 3
09:00 12 J/kg -0.1 K 0 % 0 % 0 % 0 m²/s² 0 0 0.38 80
10:00 265 J/kg -1.5 K 0 % 0 % 0 % 0 m²/s² 0 0 -0.96 95
11:00 844 J/kg -3.0 K 0 % 0 % 0 % 0 m²/s² 0 0 -2.04 61
12:00 1354 J/kg -4.5 K 0 % 0 % 0 % 0 m²/s² 0 0 -3.6 61
13:00 1445 J/kg -4.8 K 0 % 0 % 0 % 0 m²/s² 0 0 -3.84 3
14:00 1561 J/kg -4.6 K 0 % 0 % 0 % 0 m²/s² 0 0 -2.8 3
15:00 1579 J/kg -4.9 K 0 % 0 % 0 % 0 m²/s² 0 0 -1.78 3
16:00 1659 J/kg -4.6 K 0 % 0 % 0 % 0 m²/s² 0 0 -2.41 1
17:00 1609 J/kg -4.8 K 0 % 0 % 0 % 0 m²/s² 0 0 -2.61 3
18:00 1288 J/kg -4.1 K 0 % 0 % 0 % 0 m²/s² 0 0 -1.61 80
19:00 1269 J/kg -3.7 K 0 % 0 % 0 % 0 m²/s² 0 0 -1.75 0
20:00 1110 J/kg -3.1 K 0 % 0 % 0 % 0 m²/s² 0 0 -0.85 1
21:00 1008 J/kg -2.8 K 0 % 0 % 0 % 0 m²/s² 0 0 -0.4 1
22:00 687 J/kg -2.5 K 0 % 0 % 0 % 0 m²/s² 0 0 0.53 2
23:00 330 J/kg -1.2 K 0 % 0 % 0 % 0 m²/s² 0 0 3.54 2
 05:34     20:55    Daglengte: 15:21 Morgen
00:00 141 J/kg -0.4 K 0 % 0 % 0 % 0 m²/s² 0 0 5.27 80
01:00 44 J/kg 0.2 K 0 % 0 % 0 % 0 m²/s² 0 0 6.35 1
02:00 7 J/kg 0.7 K 0 % 0 % 0 % 0 m²/s² 0 0 7.03 0
03:00 0 J/kg 0.9 K 0 % 0 % 0 % 0 m²/s² 0 0 7.44 0
04:00 0 J/kg 1.4 K 0 % 0 % 0 % 0 m²/s² 0 0 7.94 1
05:00 0 J/kg 1.3 K 0 % 0 % 0 % 0 m²/s² 0 0 7.84 0
06:00 0 J/kg 1.8 K 0 % 0 % 0 % 0 m²/s² 0 0 8.16 3
07:00 0 J/kg 2.2 K 0 % 0 % 0 % 0 m²/s² 0 0 8.38 1
08:00 0 J/kg 1.9 K 0 % 0 % 0 % 0 m²/s² 0 0 8.08 3
09:00 47 J/kg 0.7 K 0 % 0 % 0 % 0 m²/s² 0 0 6.91 3
10:00 37 J/kg 0.3 K 0 % 0 % 0 % 0 m²/s² 0 0 6.51 3
11:00 16 J/kg 0.5 K 0 % 0 % 0 % 0 m²/s² 0 0 6.53 3
12:00 2 J/kg 1.0 K 0 % 0 % 0 % 0 m²/s² 0 0 7.06 3
13:00 0 J/kg 0.7 K 0 % 0 % 0 % 0 m²/s² 0 0 6.76 3
14:00 0 J/kg 1.0 K 0 % 0 % 0 % 0 m²/s² 0 0 6.91 2
15:00 0 J/kg 1.3 K 0 % 0 % 0 % 0 m²/s² 0 0 7.24 2
16:00 0 J/kg 1.5 K 0 % 0 % 0 % 0 m²/s² 0 0 7.29 3
17:00 0 J/kg 1.8 K 0 % 0 % 0 % 0 m²/s² 0 0 7.59 3
18:00 0 J/kg 1.9 K 0 % 0 % 0 % 0 m²/s² 0 0 7.39 3
19:00 0 J/kg 2.1 K 0 % 0 % 0 % 0 m²/s² 0 0 7.44 3
20:00 0 J/kg 2.5 K 0 % 0 % 0 % 0 m²/s² 0 0 7.84 2
21:00 0 J/kg 2.6 K 0 % 0 % 0 % 0 m²/s² 0 0 8.09 3
22:00 0 J/kg 2.9 K 0 % 0 % 0 % 0 m²/s² 0 0 8.39 2
23:00 0 J/kg 3.3 K 0 % 0 % 0 % 0 m²/s² 0 0 8.64 2
 05:35     20:54    Daglengte: 15:19 Dinsdag 23 Jul
00:00 0 J/kg 3.2 K 0 % 0 % 0 % 0 m²/s² 0 0 8.3 3
01:00 0 J/kg 3.3 K 0 % 0 % 0 % 0 m²/s² 0 0 8.16 3
02:00 0 J/kg 3.6 K 0 % 0 % 0 % 0 m²/s² 0 0 8.22 3
03:00 0 J/kg 3.4 K 0 % 0 % 0 % 0 m²/s² 0 0 7.69 3
04:00 0 J/kg 3.7 K 0 % 0 % 0 % 0 m²/s² 0 0 7.27 3
05:00 0 J/kg 4.1 K 0 % 0 % 0 % 0 m²/s² 0 0 7.22 2
06:00 0 J/kg 4.2 K 0 % 0 % 0 % 0 m²/s² 0 0 6.9 3
07:00 0 J/kg 4.2 K 0 % 0 % 0 % 0 m²/s² 0 0 6.51 0
08:00 0 J/kg 4.3 K 0 % 0 % 0 % 0 m²/s² 0 0 6.49 0
09:00 0 J/kg 3.1 K 0 % 0 % 0 % 0 m²/s² 0 0 5.14 0
10:00 0 J/kg 2.4 K 0 % 0 % 0 % 0 m²/s² 0 0 4.32 0
11:00 0 J/kg 2.2 K 0 % 0 % 0 % 0 m²/s² 0 0 4.12 0
12:00 0 J/kg 2.0 K 0 % 0 % 0 % 0 m²/s² 0 0 4.04 1
13:00 0 J/kg 1.5 K 0 % 0 % 0 % 0 m²/s² 0 0 3.69 1
14:00 0 J/kg 1.4 K 0 % 0 % 0 % 0 m²/s² 0 0 3.65 1
15:00 0 J/kg 0.9 K 0 % 0 % 0 % 0 m²/s² 0 0 3.39 1
16:00 0 J/kg 1.2 K 0 % 0 % 0 % 0 m²/s² 0 0 3.9 1
17:00 0 J/kg 1.8 K 0 % 0 % 0 % 0 m²/s² 0 0 4.83 1
18:00 0 J/kg 1.8 K 0 % 0 % 0 % 0 m²/s² 0 0 5.01 0
19:00 0 J/kg 2.0 K 0 % 0 % 0 % 0 m²/s² 0 0 5.39 1
20:00 1 J/kg 1.9 K 0 % 0 % 0 % 0 m²/s² 0 0 5.38 1
21:00 0 J/kg 2.3 K 0 % 0 % 0 % 0 m²/s² 0 0 5.99
22:00 0 J/kg 2.7 K 0 % 0 % 0 % 0 m²/s² 0 0 6.69
23:00 0 J/kg 1.6 K 0 % 0 % 0 % 0 m²/s² 0 0 5.71
 05:36     20:53    Daglengte: 15:17 Woensdag 24 Jul
00:00 0 J/kg 1.4 K 0 % 0 % 0 % 0 m²/s² 0 0 5.6
Temp Baro Wind Neerslag
  EWN Forecast EWN WRFDA DWD ICON FMI HIRLAM MET Norway GFS
 05:33     20:57    Daglengte: 15:24 Vandaag
02:00 19.6° 1017.6 hPa 1.9 m/s 0.0 mm 18.1° 1016.3 hPa 2.7 m/s 7.2 mm 19.4° 1017.6 hPa 1.8 m/s -2.0 mm 19.4° 1019.2 hPa 1.9 m/s 0.0 mm 19.2° 1017.6 hPa 1.2 m/s 0.0 mm 16.8° 1020.4 hPa 3.4 m/s
05:00 18.4° 1018.2 hPa 1.9 m/s 0.0 mm 18.0° 1018.5 hPa 3.5 m/s 7.2 mm 18.4° 1018.9 hPa 1.6 m/s 0.0 mm 17.8° 1020.0 hPa 1.9 m/s 0.0 mm 18.0° 1017.7 hPa 1.2 m/s 0.0 mm 16.8° 1020.2 hPa 1.0 m/s
08:00 20.9° 1020.0 hPa 1.0 m/s 2.3 mm 17.3° 1021.3 hPa 2.2 m/s 11.8 mm 20.0° 1021.1 hPa 1.0 m/s 0.3 mm 21.4° 1020.4 hPa 1.4 m/s 0.0 mm 21.1° 1019.5 hPa 0.8 m/s 0.0 mm 18.6° 1020.7 hPa 0.7 m/s
11:00 21.6° 1022.0 hPa 1.3 m/s 7.7 mm 23.5° 1020.7 hPa 3.8 m/s 33.8 mm 19.2° 1023.0 hPa 0.9 m/s 5.3 mm 27.8° 1019.6 hPa 1.2 m/s 0.0 mm 20.6° 1022.4 hPa 0.9 m/s 1.2 mm 18.9° 1021.9 hPa 1.3 m/s
14:00 22.3° 1022.1 hPa 1.9 m/s 7.3 mm 23.7° 1019.6 hPa 3.9 m/s 35.7 mm 22.0° 1022.5 hPa 0.5 m/s 0.3 mm 22.7° 1020.9 hPa 4.0 m/s 0.0 mm 22.4° 1022.4 hPa 1.8 m/s 1.0 mm 22.1° 1021.5 hPa 1.2 m/s
17:00 23.5° 1021.8 hPa 1.1 m/s 5.1 mm 25.2° 1020.1 hPa 4.5 m/s 37.3 mm 23.6° 1022.1 hPa 2.1 m/s 0.3 mm 22.8° 1021.6 hPa 0.7 m/s 0.0 mm 24.0° 1021.8 hPa 0.8 m/s 0.7 mm 23.0° 1022.3 hPa 2.1 m/s
20:00 22.2° 1022.6 hPa 1.0 m/s 3.5 mm 23.5° 1020.8 hPa 1.1 m/s 50.5 mm 22.1° 1022.7 hPa 0.9 m/s 0.3 mm 22.5° 1022.8 hPa 0.8 m/s 0.0 mm 22.1° 1022.6 hPa 0.9 m/s 0.0 mm 20.4° 1022.8 hPa 0.8 m/s
23:00 19.3° 1024.1 hPa 1.2 m/s 0.0 mm 19.3° 1022.6 hPa 2.8 m/s 50.5 mm 18.8° 1024.4 hPa 0.7 m/s 0.1 mm 18.7° 1024.8 hPa 1.3 m/s 0.0 mm 19.5° 1024.1 hPa 0.3 m/s 0.0 mm 17.2° 1025.6 hPa 1.7 m/s
 05:34     20:55    Daglengte: 15:21 Morgen
02:00 17.3° 1024.4 hPa 1.5 m/s 0.0 mm 17.0° 1022.8 hPa 2.7 m/s 50.5 mm 17.2° 1024.5 hPa 1.4 m/s 0.5 mm 17.0° 1024.7 hPa 1.5 m/s 0.0 mm 17.1° 1024.6 hPa 0.8 m/s 0.0 mm 16.2° 1025.7 hPa 2.0 m/s
05:00 16.1° 1024.2 hPa 1.6 m/s 0.0 mm 15.4° 1022.9 hPa 2.3 m/s 50.5 mm 16.2° 1024.5 hPa 1.4 m/s 0.0 mm 15.8° 1024.9 hPa 1.9 m/s 0.0 mm 15.7° 1024.2 hPa 0.7 m/s 0.0 mm 15.3° 1025.6 hPa 1.9 m/s
08:00 19.6° 1024.7 hPa 0.8 m/s 0.0 mm 19.7° 1023.5 hPa 0.6 m/s 50.5 mm 18.9° 1025.0 hPa 0.8 m/s 0.0 mm 18.7° 1024.6 hPa 1.4 m/s 0.0 mm 19.9° 1025.1 hPa 0.5 m/s 0.0 mm 18.9° 1025.6 hPa 0.9 m/s
11:00 24.6° 1024.5 hPa 1.4 m/s 0.0 mm 23.8° 1023.7 hPa 2.0 m/s 50.5 mm 23.8° 1024.9 hPa 1.4 m/s 0.0 mm 27.1° 1022.9 hPa 0.6 m/s 0.0 mm 24.3° 1025.2 hPa 1.3 m/s 0.3 mm 25.0° 1025.1 hPa 1.2 m/s
14:00 26.8° 1023.2 hPa 2.2 m/s 0.0 mm 25.2° 1023.0 hPa 2.6 m/s 50.5 mm 26.8° 1023.3 hPa 1.9 m/s 0.0 mm 27.8° 1021.6 hPa 2.6 m/s 0.0 mm 26.1° 1023.9 hPa 1.9 m/s 0.0 mm 26.0° 1023.5 hPa 2.6 m/s
17:00 27.3° 1022.5 hPa 2.3 m/s 0.0 mm 26.3° 1022.5 hPa 2.1 m/s 50.5 mm 26.6° 1022.8 hPa 2.4 m/s 0.0 mm 27.3° 1022.6 hPa 1.9 m/s 0.0 mm 25.7° 1022.8 hPa 2.0 m/s
20:00 24.8° 1022.5 hPa 0.9 m/s 0.0 mm 24.4° 1021.6 hPa 0.6 m/s 50.5 mm 24.2° 1022.5 hPa 0.6 m/s 0.0 mm 24.7° 1022.8 hPa 0.7 m/s 0.0 mm 21.8° 1023.3 hPa 0.3 m/s
23:00 20.3° 1023.2 hPa 1.5 m/s 0.0 mm 19.0° 1023.0 hPa 2.1 m/s 50.5 mm 20.1° 1023.2 hPa 1.4 m/s 0.0 mm 20.2° 1023.6 hPa 0.8 m/s 0.0 mm 18.5° 1025.5 hPa 1.7 m/s
 05:35     20:54    Daglengte: 15:19 Dinsdag 23 Jul
02:00 18.2° 1023.1 hPa 1.7 m/s 0.0 mm 17.9° 1022.1 hPa 2.8 m/s 50.5 mm 18.6° 1023.3 hPa 1.5 m/s 0.0 mm 17.4° 1023.3 hPa 1.4 m/s 0.0 mm 17.4° 1024.5 hPa 1.7 m/s
05:00 17.1° 1022.7 hPa 1.5 m/s 0.0 mm 17.1° 1022.0 hPa 1.6 m/s 50.5 mm 16.9° 1023.1 hPa 1.6 m/s 0.0 mm 16.0° 1022.8 hPa 0.5 m/s 0.0 mm 16.7° 1024.3 hPa 1.4 m/s
08:00 21.0° 1022.5 hPa 0.5 m/s 0.0 mm 21.4° 1021.4 hPa 0.1 m/s 50.5 mm 20.8° 1022.6 hPa 0.9 m/s 0.0 mm 20.9° 1023.2 hPa 0.3 m/s 0.0 mm 21.2° 1023.2 hPa 0.6 m/s
11:00 25.9° 1022.0 hPa 1.2 m/s 0.0 mm 25.4° 1022.0 hPa 0.9 m/s 50.5 mm 26.1° 1021.7 hPa 0.9 m/s 0.0 mm 25.7° 1022.3 hPa 1.2 m/s 0.0 mm 26.0° 1022.5 hPa 1.9 m/s
14:00 28.6° 1020.5 hPa 2.0 m/s 0.0 mm 27.7° 1020.6 hPa 2.7 m/s 50.5 mm 29.2° 1020.2 hPa 1.9 m/s 0.0 mm 28.3° 1020.9 hPa 1.7 m/s 0.0 mm 28.4° 1020.7 hPa 2.7 m/s
17:00 29.0° 1019.4 hPa 1.9 m/s 0.0 mm 28.3° 1019.3 hPa 3.2 m/s 50.5 mm 29.6° 1018.6 hPa 1.9 m/s 0.0 mm 29.0° 1019.6 hPa 1.6 m/s 0.0 mm 28.1° 1019.8 hPa 2.3 m/s
20:00 25.4° 1018.8 hPa 1.0 m/s 0.0 mm 25.2° 1018.8 hPa 1.8 m/s 50.5 mm 25.9° 1018.4 hPa 1.3 m/s 0.0 mm 25.4° 1019.0 hPa 0.6 m/s 0.0 mm 22.9° 1019.9 hPa 0.6 m/s
23:00 21.4° 1018.9 hPa 1.1 m/s 50.5 mm 19.3° 1019.0 hPa 2.6 m/s 50.5 mm 21.8° 1018.9 hPa 0.9 m/s 19.2° 1021.3 hPa 1.6 m/s
 05:36     20:53    Daglengte: 15:17 Woensdag 24 Jul
02:00 18.3° 1018.7 hPa 1.3 m/s 50.5 mm 18.8° 1018.2 hPa 1.7 m/s 50.5 mm 18.2° 1018.8 hPa 1.2 m/s 18.3° 1020.9 hPa 1.5 m/s
05:00 20.6° 1018.7 hPa 0.7 m/s 17.0 mm 20.9° 1018.5 hPa 0.7 m/s 17.4° 1020.2 hPa 1.3 m/s 17.0 mm
08:00 22.3° 1018.5 hPa 0.4 m/s 17.0 mm 22.3° 1018.4 hPa 0.4 m/s 21.9° 1020.1 hPa 0.4 m/s 17.0 mm
11:00 26.4° 1018.0 hPa 1.3 m/s 17.0 mm 26.4° 1017.9 hPa 1.3 m/s 27.2° 1019.5 hPa 1.6 m/s 17.0 mm
14:00 30.4° 1017.5 hPa 2.2 m/s 17.0 mm 30.4° 1017.4 hPa 2.2 m/s 30.0° 1018.0 hPa 2.3 m/s 17.0 mm
17:00 28.4° 1017.2 hPa 1.7 m/s 17.0 mm 28.3° 1017.1 hPa 1.7 m/s 30.1° 1017.2 hPa 2.5 m/s 17.0 mm
20:00 26.1° 1017.0 hPa 1.1 m/s 17.0 mm 26.2° 1016.9 hPa 1.1 m/s 24.6° 1017.8 hPa 0.7 m/s 17.0 mm
23:00 22.0° 1017.7 hPa 1.0 m/s 17.0 mm 22.0° 1017.5 hPa 1.0 m/s 21.1° 1019.6 hPa 1.5 m/s 17.0 mm
 05:37     20:52    Daglengte: 15:15 Donderdag 25 Jul
02:00 18.1° 1018.3 hPa 0.9 m/s 17.0 mm 17.9° 1018.2 hPa 0.9 m/s 20.2° 1019.5 hPa 1.4 m/s 17.0 mm
05:00 19.9° 1018.3 hPa 0.6 m/s 17.0 mm 20.0° 1018.2 hPa 0.6 m/s 19.2° 1018.7 hPa 0.9 m/s 17.0 mm
08:00 22.2° 1018.3 hPa 0.3 m/s 17.0 mm 22.1° 1018.3 hPa 0.3 m/s 23.1° 1018.5 hPa 0.6 m/s 17.0 mm
11:00 26.6° 1017.5 hPa 1.2 m/s 17.0 mm 26.5° 1017.5 hPa 1.2 m/s 28.2° 1017.1 hPa 1.8 m/s 17.0 mm
14:00 30.8° 1016.7 hPa 2.1 m/s 17.0 mm 30.8° 1016.8 hPa 2.1 m/s 30.6° 1015.6 hPa 2.5 m/s 17.0 mm
17:00 28.6° 1016.1 hPa 1.7 m/s 17.5 mm 28.6° 1016.2 hPa 1.6 m/s 29.3° 1014.9 hPa 2.2 m/s 17.5 mm
20:00 26.2° 1015.7 hPa 1.1 m/s 18.8 mm 26.3° 1015.7 hPa 1.2 m/s 24.8° 1015.5 hPa 0.1 m/s 18.8 mm
23:00 22.5° 1016.0 hPa 1.0 m/s 18.9 mm 22.6° 1016.0 hPa 0.9 m/s 22.1° 1016.5 hPa 1.8 m/s 18.9 mm
 05:39     20:51    Daglengte: 15:12 Vrijdag 26 Jul
02:00 19.0° 1016.3 hPa 0.8 m/s 19.2 mm 18.8° 1016.3 hPa 0.7 m/s 21.1° 1016.4 hPa 2.1 m/s 19.2 mm
05:00 20.3° 1016.3 hPa 0.6 m/s 19.4 mm 20.3° 1016.3 hPa 0.6 m/s 20.1° 1016.0 hPa 1.6 m/s 19.4 mm
08:00 22.0° 1016.3 hPa 0.4 m/s 19.4 mm 21.8° 1016.4 hPa 0.4 m/s 23.8° 1015.5 hPa 0.8 m/s 19.4 mm
11:00 26.7° 1015.5 hPa 1.3 m/s 19.4 mm 26.5° 1015.5 hPa 1.2 m/s 28.6° 1014.5 hPa 1.8 m/s 19.4 mm
14:00 31.2° 1014.6 hPa 2.1 m/s 19.6 mm 31.2° 1014.7 hPa 2.1 m/s 30.8° 1013.3 hPa 2.2 m/s 19.6 mm
17:00 29.7° 1014.2 hPa 1.7 m/s 23.2 mm 29.9° 1014.4 hPa 1.6 m/s 28.1° 1012.8 hPa 1.9 m/s 23.2 mm
20:00 28.0° 1014.1 hPa 1.4 m/s 30.9 mm 28.6° 1014.0 hPa 1.2 m/s 21.6° 1015.0 hPa 3.1 m/s 30.9 mm
23:00 23.8° 1015.0 hPa 1.2 m/s 32.1 mm 24.1° 1014.9 hPa 1.1 m/s 19.8° 1016.9 hPa 2.0 m/s 32.1 mm
 05:40     20:50    Daglengte: 15:10 Zaterdag 27 Jul
02:00 19.6° 1015.8 hPa 1.0 m/s 32.2 mm 19.7° 1015.7 hPa 1.0 m/s 18.2° 1017.4 hPa 1.5 m/s 32.2 mm
05:00 21.3° 1016.5 hPa 0.9 m/s 33.7 mm 21.5° 1016.4 hPa 0.8 m/s 18.3° 1017.7 hPa 1.8 m/s 33.7 mm
08:00 23.1° 1017.2 hPa 0.8 m/s 34.8 mm 23.4° 1017.1 hPa 0.7 m/s 20.0° 1018.3 hPa 1.4 m/s 34.8 mm
11:00 27.0° 1016.9 hPa 1.1 m/s 35.4 mm 27.5° 1016.8 hPa 1.0 m/s 21.3° 1018.2 hPa 1.8 m/s 35.4 mm
14:00 31.1° 1016.5 hPa 1.5 m/s 36.3 mm 31.7° 1016.4 hPa 1.4 m/s 24.5° 1017.6 hPa 2.4 m/s 36.3 mm
17:00 29.1° 1016.6 hPa 1.6 m/s 37.5 mm 29.6° 1016.5 hPa 1.5 m/s 24.0° 1017.5 hPa 2.1 m/s 37.5 mm
20:00 27.0° 1016.8 hPa 1.6 m/s 40.1 mm 27.5° 1016.7 hPa 1.7 m/s 21.2° 1017.8 hPa 0.6 m/s 40.1 mm
23:00 24.1° 1017.6 hPa 1.6 m/s 40.2 mm 24.6° 1017.5 hPa 1.5 m/s 18.5° 1019.2 hPa 1.7 m/s 40.2 mm
 05:41     20:48    Daglengte: 15:07 Zondag 28 Jul
02:00 21.4° 1018.3 hPa 1.4 m/s 40.2 mm 21.7° 1018.2 hPa 1.4 m/s 18.1° 1019.2 hPa 1.6 m/s 40.2 mm
08:00 24.6° 1019.5 hPa 0.6 m/s 40.3 mm 25.0° 1019.5 hPa 0.6 m/s 19.9° 1019.1 hPa 0.6 m/s 40.3 mm
14:00 30.4° 1019.1 hPa 1.7 m/s 41.0 mm 30.8° 1019.2 hPa 1.7 m/s 26.5° 1017.9 hPa 1.8 m/s 41.0 mm
20:00 28.0° 1018.0 hPa 0.8 m/s 41.3 mm 28.5° 1017.9 hPa 0.8 m/s 22.6° 1018.7 hPa 0.6 m/s 41.3 mm
 05:42     20:47    Daglengte: 15:05 Maandag 29 Jul
02:00 21.0° 1019.0 hPa 1.1 m/s 41.3 mm 21.3° 1018.8 hPa 1.0 m/s 18.3° 1021.1 hPa 1.9 m/s 41.3 mm
08:00 24.5° 1019.2 hPa 1.1 m/s 41.3 mm 24.8° 1019.0 hPa 1.1 m/s 21.4° 1021.3 hPa 0.8 m/s 41.3 mm
14:00 34.5° 1015.9 hPa 2.0 m/s 41.3 mm 35.1° 1015.6 hPa 1.9 m/s 28.3° 1019.7 hPa 2.8 m/s 41.3 mm
20:00 29.5° 1015.0 hPa 1.1 m/s 41.3 mm 30.2° 1014.5 hPa 1.1 m/s 22.3° 1020.2 hPa 1.0 m/s 41.3 mm
 05:44     20:46    Daglengte: 15:02 Dinsdag 30 Jul
02:00 20.9° 1015.6 hPa 1.2 m/s 41.3 mm 21.2° 1015.0 hPa 1.2 m/s 17.8° 1022.4 hPa 0.7 m/s 41.3 mm
08:00 24.2° 1015.9 hPa 1.2 m/s 41.3 mm 24.5° 1015.4 hPa 1.2 m/s 21.2° 1021.3 hPa 0.9 m/s 41.3 mm
14:00 35.9° 1012.8 hPa 1.9 m/s 41.3 mm 36.5° 1012.3 hPa 1.8 m/s 29.6° 1018.5 hPa 2.5 m/s 41.3 mm
20:00 23.1° 1017.5 hPa 1.1 m/s 0.7 mm
 05:45     20:44    Daglengte: 14:59 Woensdag 31 Jul
02:00 16.9° 1018.7 hPa 1.7 m/s 0.2 mm
08:00 20.3° 1018.4 hPa 1.2 m/s 0.5 mm
14:00 27.5° 1016.4 hPa 1.4 m/s 1.2 mm
20:00 23.4° 1016.2 hPa 0.8 m/s 1.4 mm
 05:46     20:43    Daglengte: 14:57 Donderdag 01 Aug
02:00 17.4° 1017.5 hPa 1.5 m/s 0.5 mm
08:00 20.4° 1017.3 hPa 1.2 m/s 0.3 mm
14:00 27.8° 1015.2 hPa 1.3 m/s 0.6 mm
20:00 23.1° 1015.2 hPa 0.8 m/s 1.9 mm
 05:47     20:41    Daglengte: 14:54 Vrijdag 02 Aug
02:00 17.0° 1016.7 hPa 1.4 m/s 1.2 mm
08:00 19.4° 1016.8 hPa 1.2 m/s 2.1 mm
14:00 25.6° 1015.4 hPa 1.6 m/s 1.6 mm
20:00 21.6° 1015.2 hPa 0.8 m/s 1.6 mm
 05:49     20:40    Daglengte: 14:51 Zaterdag 03 Aug
02:00 15.9° 1016.5 hPa 1.2 m/s 1.4 mm
08:00 18.8° 1016.1 hPa 1.0 m/s 0.5 mm
14:00 25.2° 1014.2 hPa 1.8 m/s 0.8 mm
20:00 20.7° 1014.1 hPa 1.0 m/s 3.6 mm
 05:50     20:39    Daglengte: 14:49 Zondag 04 Aug
02:00 15.2° 1015.5 hPa 0.8 m/s 4.6 mm
08:00 17.2° 1015.5 hPa 0.6 m/s 1.4 mm
14:00 23.1° 1014.2 hPa 1.4 m/s 1.7 mm
20:00 19.4° 1014.3 hPa 0.6 m/s 2.6 mm
FMI Hirlam - 7.5 km EWN WRFDA - 12 km DWD ICON - 7 km GFS - 25 km Basiskaart






























































Updatetijd (Europe/Amsterdam) Resolutie Lengte Stap
FMI Hirlam 19:00, 01:00, 07:00, 13:00 7.5 km 49h 1h
EWN WRFDA 22:00, 04:00, 10:00, 16:00 12 km 73h 1h
DWD ICON 23:45, 05:45, 11:45, 17:45 7 km 75h 1h
GFS 20:30, 02:30, 08:30, 14:30 25 km 237h 3h
30+ mm
25-30 mm
20-25 mm
15-20 mm
10-15 mm
6-10 mm
4-6 mm
2-4 mm
1-2 mm
0.5-1 mm
0.2-0.5 mm
0.1-0.2 mm
30+ mm
25-30 mm
20-25 mm
15-20 mm
10-15 mm
6-10 mm
4-6 mm
2-4 mm
1-2 mm
0.5-1 mm
0.2-0.5 mm
0.1-0.2 mm
Sneeuwval
Natte sneeuw
Hagel
Vorst
30+ mm
25-30 mm
20-25 mm
15-20 mm
10-15 mm
6-10 mm
4-6 mm
2-4 mm
1-2 mm
0.5-1 mm
0.2-0.5 mm
0.1-0.2 mm
Sneeuwval
Natte sneeuw
Hagel
Vorst
Onweer
50 mm
40 mm
30 mm
26 mm
22 mm
18 mm
14 mm
10 mm
9 mm
8 mm
7 mm
6 mm
5 mm
4.5 mm
4 mm
3.5 mm
3 mm
2.5 mm
2 mm
1.5 mm
1 mm
0.8 mm
0.6 mm
0.4 mm
0.2 mm
0.05 mm
35°
30°
25°
20°
15°
10°
-5°
-10°
-15°
-20°
-25°
-30°
-35°
120> km/h
105 km/h
90 km/h
75 km/h
60 km/h
50 km/h
40 km/h
30 km/h
20 km/h
10 km/h
0 km/h
2600 J/kg
2400 J/kg
2200 J/kg
2000 J/kg
1800 J/kg
1600 J/kg
1400 J/kg
1200 J/kg
1000 J/kg
800 J/kg
600 J/kg
400 J/kg
200 J/kg
70 dBZ
65 dBZ
60 dBZ
55 dBZ
50 dBZ
45 dBZ
40 dBZ
35 dBZ
30 dBZ
25 dBZ
20 dBZ
15 dBZ
10 dBZ
5 dBZ
-1 K
-2 K
-3 K
-4 K
-5 K
-6 K
-7 K
-8 K
-9 K
950 m²/s²
900 m²/s²
850 m²/s²
800 m²/s²
750 m²/s²
700 m²/s²
650 m²/s²
600 m²/s²
550 m²/s²
500 m²/s²
450 m²/s²
400 m²/s²
350 m²/s²
300 m²/s²
250 m²/s²
200 m²/s²
150 m²/s²
100 m²/s²
46 m/s
44 m/s
42 m/s
40 m/s
38 m/s
36 m/s
34 m/s
32 m/s
30 m/s
28 m/s
26 m/s
24 m/s
22 m/s
20 m/s
16 m/s
12 m/s
8 m/s
4 m/s
30 m/s
28 m/s
26 m/s
24 m/s
22 m/s
20 m/s
18 m/s
16 m/s
14 m/s
12 m/s
10 m/s
8 m/s
6 m/s
4 m/s
2 m/s
3.0
2.8
2.6
2.4
2.2
2.0
1.8
1.6
1.4
1.2
1.0
0.8
0.6
0.4
0.2
15
14
13
12
11
10
9
8
7
6
5
4
3
2
1
90%
80%
70%
60%
50%
40%
30%
20%
10%
42
40
38
36
34
32
30
28
26
24
22
20
18
16
14
12
90+ cm
80-90 cm
70-80 cm
60-70 cm
50-60 cm
40-50 cm
30-40 cm
20-30 cm
10-20 cm
1-10 cm
Sneeuwval
Natte sneeuw
Regen
>120 mm
115 mm
110 mm
105 mm
100 mm
95 mm
90 mm
85 mm
80 mm
75 mm
70 mm
65 mm
60 mm
55 mm
50 mm
45 mm
45 mm
40 mm
35 mm
30 mm
25 mm
20 mm
15 mm
10 mm
5 mm
0.1 mm
960 hPa
880 hPa
800 hPa
720 hPa
640 hPa
560 hPa
584 gpdm
568 gpdm
552 gpdm
536 gpdm
520 gpdm
504 gpdm
488 gpdm
Extreem zwaar Noodweer Kans op onweer
15% 15% 5% 50% 15%

Dag




Kaart






35°
30°
25°
20°
15°
10°
-5°
-10°
-15°
-20°
-25°